Location: Bachtolen
(46.2843°N, 7.8009°E)
Time: 11:20:55
(UTC+00:00)

Daily predictions for brighter satellites

Satellite Brightness Start Highest point End
(mag) Time Altitude Azimuth Time Altitude Azimuth Time Altitude Azimuth
Okean O Rocket 3.4 16:13:14 10° E 16:15:08 13° ENE 16:17:03 10° NNE
USA 267 3.4 16:14:43 10° NE 16:21:18 78° SE 16:27:50 10° SW
H-2A R/B 2.8 16:19:28 10° ESE 16:23:47 28° ENE 16:28:02 10° N
SJ 16-02 3.7 16:21:41 10° NW 16:25:28 29° W 16:29:15 10° SSW
Cosmos 1763 Rocket 3.5 16:22:02 10° S 16:27:02 65° ESE 16:32:07 10° NNE
CZ-4B R/B 2.8 16:23:57 10° SSE 16:28:01 84° ENE 16:31:54 10° NNW
USA 305 4.1 16:25:25 10° WNW 16:29:08 29° N 16:32:46 10° NE
USA 276 3.2 16:26:13 10° WNW 16:29:13 45° SSW 16:32:13 10° SE
Cosmos 1656 4.2 16:25:47 10° NNW 16:31:17 67° WSW 16:36:50 10° SSE
Cosmos 1933 3.7 16:29:18 10° SSE 16:33:09 44° E 16:37:01 10° NNE
Cosmos 841 Rocket 4.2 16:28:59 10° SSE 16:33:34 33° ESE 16:38:10 10° NE
PSLV R/B 4.4 16:30:58 10° SE 16:34:15 31° ENE 16:37:35 10° N
Cosmos 1464 Rocket 4.4 16:28:48 10° SSW 16:35:09 70° W 16:41:33 10° N
USA 229 DEB 4.0 16:28:54 10° NW 16:36:16 86° NE 16:44:06 10° SE
USA 229 4.0 16:28:59 10° NW 16:36:21 86° NE 16:44:11 10° SE
Cosmos 1937 Rocket 3.6 16:32:23 10° NNW 16:37:40 57° ENE 16:42:53 10° SE
Cosmos 1500 Rocket 3.6 16:35:58 10° N 16:40:27 89° E 16:44:51 10° S
Cosmos 1666 4.0 16:37:58 10° NNE 16:40:39 19° ENE 16:43:20 10° ESE
Nadezhda 4 Rocket 4.3 16:35:58 10° N 16:42:17 77° W 16:48:36 10° S
SL-24 R/B - RUBIN 2 3.9 16:38:41 10° NNW 16:43:05 43° NE 16:47:13 10° ESE
ATLAS 2AS CENTAUR R/B 4.4 16:38:05 10° WNW 16:43:53 22° NNW 16:49:29 10° NE
Cosmos 2322 Rocket 3.8 16:41:08 10° N 16:44:13 15° NE 16:45:58 13° ENE
Cosmos 990 Rocket 4.3 16:39:23 10° NNW 16:44:35 71° WSW 16:49:42 10° S
FengYun 1-2 T 4.3 16:40:03 10° SSE 16:45:38 88° WSW 16:51:14 10° NNW
Cosmos 1697 Rocket 2.7 16:41:21 10° NNW 16:47:00 85° ENE 16:52:37 10° SSE
Cosmos 372 Rocket 4.2 16:43:48 10° NNW 16:48:51 46° ENE 16:53:53 10° SE
NOAA 6 4.0 16:43:54 10° SSE 16:49:02 82° ENE 16:54:11 10° NNW
Sich 1 3.1 16:45:58 10° N 16:50:11 52° ENE 16:54:23 10° SSE
Cosmos 1980 Rocket 2.3 16:45:45 10° NNW 16:51:18 51° ENE 16:56:45 10° SE
Cosmos 2221 3.9 16:47:29 10° SW 16:51:29 39° WNW 16:55:33 10° N
Cosmos 1805 Rocket 3.4 16:47:51 10° N 16:52:11 70° E 16:56:31 10° SSE
Cosmos 2369 3.7 16:47:32 10° NNW 16:53:15 65° ENE 16:58:55 10° SE
USA 234 3.3 16:48:25 10° SE 16:54:59 88° NE 17:01:33 10° NW
CZ-4C R/B 3.1 16:50:48 10° NNW 16:57:40 53° NE 17:05:44 10° ESE
Cosmos 1092 Rocket 4.0 16:51:50 10° N 16:58:14 85° E 17:04:34 10° S
Cosmos 1812 3.4 16:56:43 10° SSE 17:00:11 33° E 17:02:42 16° NE
Cosmos 1428 Rocket 4.4 16:54:48 10° N 17:00:57 78° E 17:07:07 10° SSE
USA 306 4.1 16:57:45 10° WNW 17:01:28 28° N 17:03:35 19° NE
SL-16 R/B 3.4 16:58:03 10° N 17:02:26 22° NE 17:04:16 19° ENE
ISS -3.7 16:59:40 10° WNW 17:03:03 62° NNE 17:04:58 23° E
Meteor 1-25 Rocket 4.4 16:58:21 10° NNW 17:03:55 75° W 17:09:30 10° S
deb Chang Zheng 4 4.0 17:00:33 10° SE 17:04:32 38° ENE 17:08:32 10° N
SMAP 3.4 17:00:26 10° S 17:05:04 70° WSW 17:09:44 10° NNW
MOS 1-B Rocket 4.2 16:59:26 10° NNE 17:05:14 53° E 17:11:48 10° S
NOSS 2-2 (D) 4.3 17:00:12 10° NW 17:05:21 72° NE 17:12:34 10° SE
NOSS 2-2 (E) 4.4 17:00:23 10° NW 17:05:42 84° NE 17:13:15 10° SE
Cosmos 2082 Rocket 2.4 17:00:32 10° S 17:06:03 54° ESE 17:10:43 14° NE
Cosmos 1939 Rocket 3.6 17:02:17 10° S 17:06:20 57° W 17:10:23 10° NNW
CORIOLIS 4.3 17:02:36 10° S 17:08:00 79° WSW 17:13:28 10° NNW
Cosmos 44 Rocket 4.0 17:08:04 10° NNW 17:12:32 32° NE 17:14:23 24° E
Cosmos 2333 Rocket 4.3 17:12:06 10° NNE 17:12:25 10° NNE 17:12:25 10° NNE
CZ-4B DEB 4.3 17:08:51 10° SSE 17:14:22 81° WSW 17:19:54 10° NNW
Meteor 2-16 Rocket 4.5 17:08:47 10° N 17:14:49 57° ENE 17:20:49 10° SSE
Cosmos 2278 3.7 17:11:40 10° NNW 17:17:20 58° ENE 17:22:54 10° SE
Cosmos 1602 4.4 17:13:34 10° NNW 17:17:21 57° W 17:21:09 10° S
Cosmos 2142 Rocket 4.5 17:12:11 10° S 17:18:11 60° E 17:24:18 10° NNE
USA 307 4.1 17:16:34 10° WNW 17:20:20 29° N 17:21:38 24° NE
Cosmos 540 Rocket 3.6 17:15:56 10° SSW 17:21:01 75° WNW 17:26:07 10° NNE
ARGOS 3.2 17:19:16 10° SSE 17:24:32 57° ENE 17:29:50 10° N
Cosmos 1570 Rocket 4.2 17:20:40 10° S 17:25:42 51° ESE 17:28:35 24° NE
Cosmos 2279 Rocket 3.9 17:19:39 10° S 17:25:46 64° E 17:31:54 10° NNE
COSMO-SKYMED 1 2.6 17:23:24 20° NNE 17:26:18 54° E 17:30:33 10° S
COSMOS 2406 3.5 17:21:05 10° SW 17:26:48 68° WNW 17:32:09 12° NNE
Cosmos 1833 Rocket 3.4 17:22:42 10° SW 17:28:11 52° WNW 17:33:42 10° NNE
Cosmos 1782 3.2 17:25:18 10° SSW 17:29:15 64° W 17:33:14 10° N
Cosmos 2266 Rocket 4.4 17:24:07 10° N 17:30:08 41° ENE 17:36:09 10° SE
Cosmos 1814 Rocket 3.9 17:25:22 10° S 17:30:32 64° ESE 17:33:44 23° NNE
ATLAS 5 CENTAUR R/B 2.5 17:25:51 10° NW 17:32:38 37° NNE 17:33:08 36° NE
Cosmos 921 Rocket 4.1 17:30:07 10° SSE 17:32:43 26° SE 17:32:43 26° SE
Helios 1B 4.5 17:32:06 23° NNE 17:34:42 64° ESE 17:38:59 10° S
Cosmos 1633 Rocket 2.9 17:31:00 10° N 17:35:23 71° E 17:39:45 10° SSE
Cosmos 1818 3.7 17:31:20 10° NNW 17:36:42 51° NE 17:38:50 33° ESE
YAOGAN 1 4.3 17:39:35 19° NNE 17:39:35 19° NNE 17:40:58 10° N
Cosmos 2219 Rocket 4.3 17:36:10 10° NNE 17:36:27 10° NNE 17:36:27 10° NNE
GEOS 3 Rocket 3.9 17:37:58 35° E 17:39:27 44° NE 17:44:23 10° NNW
CZ-2D R/B 4.2 17:36:07 10° S 17:39:50 49° W 17:43:34 10° NNW
Meteor 2-6 Rocket 4.2 17:35:01 10° S 17:40:41 62° E 17:45:14 16° NNE
SJ-11-01 4.2 17:37:45 10° SSE 17:42:30 80° ENE 17:47:16 10° N
Cosmos 1634 Rocket 4.4 17:36:32 10° SSW 17:42:48 64° WNW 17:49:07 10° N
USA 308 3.9 17:39:12 10° NW 17:43:00 31° N 17:43:13 30° NNE
COSMOS 2455 3.0 17:38:09 10° SW 17:44:10 74° NW 17:48:14 22° NNE
CZ-2C R/B 2.4 17:40:35 10° NNE 17:45:43 83° ESE 17:50:54 10° SSW
CZ-4B R/B 3.2 17:41:18 10° SSE 17:46:44 79° WSW 17:52:06 10° NNW
Cosmos 1151 Rocket 3.1 17:43:56 10° SSW 17:48:15 78° W 17:51:27 18° N
Okean O Rocket 1.6 17:46:21 10° SSE 17:50:49 86° WSW 17:55:18 10° NNW
Lacrosse 5 rocket 1.8 17:47:19 10° NW 17:50:36 43° N 17:50:36 43° N
Meteor 2-15 4.3 17:52:02 10° S 17:58:05 70° E 18:03:28 14° NNE
Cosmos 2208 Rocket 3.9 17:54:19 10° SSW 17:59:42 80° ESE 18:01:39 41° NNE
Cosmos 1666 Rocket 4.4 17:56:51 10° NNW 18:01:09 50° W 18:05:24 10° SSW
Meteor 1-10 Rocket 4.1 17:56:49 10° S 18:02:33 68° E 18:04:52 37° NNE
H-2A R/B 3.2 17:58:08 10° S 18:03:02 42° W 18:07:51 10° NNW
Meteor 1-11 Rocket 3.7 17:57:50 10° N 18:03:25 60° ENE 18:05:46 34° SE
USA 267 3.9 18:01:03 29° NE 18:04:04 47° NNW 18:10:16 10° W
Cosmos 1470 Rocket 3.4 17:59:58 10° N 18:04:27 84° E 18:08:56 10° S
Cosmos 2150 Rocket 3.9 17:59:38 10° NNW 18:04:47 63° ENE 18:04:48 63° ENE
Cosmos 1328 Rocket 3.7 18:01:21 10° SSW 18:05:47 72° W 18:07:30 37° N
Cosmos 1655 Rocket 3.9 18:00:10 10° N 18:06:37 78° E 18:12:59 10° SSE
Landsat 5 3.4 18:08:42 75° NW 18:08:48 76° WNW 18:12:47 10° SSW
Cosmos 2360 Rocket 3.6 18:04:24 10° N 18:07:10 23° NNE 18:07:10 23° NNE
USA 305 4.1 18:05:50 10° NW 18:08:46 32° NNW 18:08:46 32° NNW
SKYMED 2 4.4 18:12:00 24° N 18:14:21 48° WNW 18:18:31 10° SW
Feng Yun 1-1 Rocket 4.3 18:10:13 10° SSE 18:16:09 85° WSW 18:22:04 10° NNW
Cosmos 1666 4.4 18:12:55 10° NNW 18:16:16 32° W 18:19:35 10° SSW
ATLAS CENTAUR R/B 3.3 18:13:16 10° W 18:20:04 35° NW 18:20:43 33° NNW
Cosmos 1125 Rocket 3.5 18:17:38 10° NNW 18:22:14 68° N 18:22:14 68° N
Cosmos 2322 Rocket 2.8 18:23:49 10° NNW 18:27:49 43° N 18:27:49 43° N
Cosmos 1980 Rocket 4.1 18:30:17 10° NW 18:35:00 27° WSW 18:39:39 10° SSW
ATLAS 2AS CENTAUR R/B 4.2 18:31:56 10° NW 18:37:27 23° NNE 18:37:27 23° NNE
ISS -0.8 18:36:48 10° W 18:37:59 17° W 18:37:59 17° W
CZ-4C R/B 3.8 18:39:20 10° NW 18:46:27 50° WSW 18:54:33 10° S
SL-16 R/B 2.5 18:41:29 10° NNW 18:46:11 60° NW 18:46:11 60° NW
Cosmos 2082 Rocket 3.9 18:45:33 10° WSW 18:50:26 29° NW 18:52:35 23° NNW
Cosmos 2333 Rocket 4.3 18:53:18 10° NNW 18:54:27 16° N 18:54:27 16° N
